Flag for Germany

Past Weather in Frankfurt, Hesse, Germany — Yesterday and Last 2 Weeks

Now
68 °F

Clear.


Feels Like: 68 °F
Forecast: 76 / 56 °F
Wind: 1 mph from Southwest

Location: Frankfurt-M-Flughafen Airport
Current Time: Sep 22, 2020 at 8:40:36 pm
Latest Report: Sep 22, 2020 at 7:50 pm
Visibility: 10 mi
Pressure29.74 "Hg
Humidity: 56%
Dew Point: 52 °F
Location of FrankfurtLocation

Past Weather in Frankfurt — Graph

°F

Frankfurt Temperature Yesterday

Maximum temperature yesterday: 79 °F (at 3:20 pm)
Minimum temperature yesterday: 50 °F (at 6:50 am)
Average temperature yesterday: 65 °F

High & Low Weather Summary for the Past Weeks

 TemperatureHumidityPressure
High91 °F (Sep 16, 3:20 pm)94% (Sep 9, 6:50 am)30.36 "Hg (Sep 9, 6:50 am)
Low43 °F (Sep 8, 6:20 am)24% (Sep 8, 5:50 pm)29.74 "Hg (Sep 22, 6:20 pm)
Average67 °F56%30.13 "Hg
* Reported Sep 7 7:20 pm — Sep 22 7:20 pm, Frankfurt. Weather by CustomWeather, © 2020

Note: Actual official high and low records may vary slightly from our data, if they occured in-between our weather recording intervals... More about our weather records

Frankfurt Weather History for the Previous 24 Hours

Scroll right to see more
 ConditionsComfort  
Time TempWeatherWind HumidityBarometerVisibility
7:20 pm
Tue, Sep 22
72 °FSunny.2 mph50%29.74 "Hg10 mi
6:50 pm75 °FPassing clouds.3 mph44%29.74 "HgN/A
6:20 pm79 °FPassing clouds.5 mph34%29.74 "HgN/A
5:50 pm79 °FPassing clouds.5 mph37%29.77 "HgN/A
5:20 pm81 °FPassing clouds.5 mph34%29.77 "HgN/A
4:50 pm81 °FPassing clouds.5 mph32%29.80 "HgN/A
4:20 pm81 °FSunny.7 mph32%29.80 "Hg10 mi
3:50 pm81 °FSunny.9 mph30%29.83 "Hg10 mi
3:20 pm81 °FPassing clouds.8 mph32%29.83 "HgN/A
2:50 pm79 °FSunny.5 mph34%29.83 "Hg10 mi
2:20 pm77 °FPassing clouds.7 mph39%29.86 "HgN/A
1:50 pm77 °FPassing clouds.7 mph39%29.86 "HgN/A
1:20 pm75 °FPassing clouds.6 mph41%29.86 "HgN/A
12:50 pm75 °FSunny.3 mph41%29.86 "Hg10 mi
12:20 pm73 °FSunny.5 mph44%29.89 "Hg10 mi
11:50 am70 °FSunny.2 mph50%29.89 "Hg10 mi
11:20 am68 °FSunny.2 mph53%29.89 "Hg10 mi
10:50 am66 °FSunny.1 mph52%29.92 "Hg10 mi
10:20 am64 °FSunny.1 mph56%29.92 "Hg10 mi
9:50 am63 °FSunny.1 mph56%29.92 "Hg10 mi
9:20 am61 °FSunny.1 mph59%29.92 "Hg10 mi
8:50 am57 °FSunny.2 mph72%29.92 "Hg10 mi
8:20 am52 °FSunny.1 mph82%29.92 "Hg10 mi
7:50 am48 °FSunny.1 mph87%29.92 "Hg10 mi
7:20 am48 °FSunny.3 mph87%29.92 "Hg10 mi
6:50 am48 °FClear.3 mph87%29.92 "Hg10 mi
6:20 am48 °FClear.2 mph87%29.89 "Hg10 mi
5:50 am48 °FClear.1 mph87%29.89 "Hg10 mi
5:20 am48 °FClear.2 mph87%29.92 "Hg10 mi
4:50 am50 °FClear.5 mph88%29.92 "Hg10 mi
4:20 am50 °FClear.2 mph88%29.89 "Hg10 mi
3:50 am52 °FClear.1 mph82%29.92 "Hg10 mi
3:20 am54 °FClear.3 mph77%29.92 "Hg10 mi
2:50 am55 °FClear.6 mph72%29.92 "Hg10 mi
2:20 am55 °FPassing clouds.5 mph72%29.92 "HgN/A
1:50 am55 °FClear.2 mph72%29.92 "Hg10 mi
1:20 am55 °FClear.2 mph72%29.92 "Hg10 mi
12:50 am55 °FClear.2 mph72%29.92 "Hg10 mi
12:20 am55 °FClear.5 mph72%29.92 "Hg10 mi
11:50 pm
Mon, Sep 21
55 °FClear.6 mph72%29.95 "Hg10 mi
11:20 pm57 °FClear.2 mph67%29.95 "Hg10 mi
10:50 pm59 °FPassing clouds.5 mph63%29.95 "HgN/A
10:20 pm59 °FClear.1 mph63%29.95 "Hg10 mi
9:50 pm61 °FClear.1 mph59%29.95 "Hg10 mi
9:20 pm63 °FClear.2 mph56%29.95 "Hg10 mi
8:50 pm63 °FClear.1 mph56%29.95 "Hg10 mi
8:20 pm66 °FPassing clouds.5 mph49%29.95 "HgN/A
Weather by CustomWeather, © 2020

See weather overview